,,PA_Meas_PMT16A,,PR_Meas_QMR101_102,,RH_Meas_QMH101,,SR_Meas_QMS101,,TA_Meas_QMH101,,GenWind,,GenWind,
time,status,PA,status,PR,status,RH,status,SR,status,TA,status,DirAvg,status,SpdAvg,
2010-06-26, 00:00:04,VALID,917.388,VALID,0,VALID,93.364,VALID,0.107441,VALID,20.8714,VALID,353,VALID,0.389453,
2010-06-26, 00:01:04,VALID,917.411,VALID,0,VALID,93.2725,VALID,0.107441,VALID,20.8699,VALID,353,VALID,0,
2010-06-26, 00:02:04,VALID,917.391,VALID,0,VALID,93.0972,VALID,0,VALID,20.891,VALID,353,VALID,0.000390625,
2010-06-26, 00:03:04,VALID,917.372,VALID,0,VALID,92.9599,VALID,0,VALID,20.891,VALID,353,VALID,0.23125,
2010-06-26, 00:04:04,VALID,917.348,VALID,0,VALID,92.9752,VALID,0.107441,VALID,20.891,VALID,353,VALID,0.474609,
2010-06-26, 00:05:04,VALID,917.322,VALID,0,VALID,93.0285,VALID,0,VALID,20.8714,VALID,353,VALID,0.680859,
2010-06-26, 00:06:04,VALID,917.315,VALID,0,VALID,93.1505,VALID,0.107441,VALID,20.8519,VALID,353,VALID,0.495313,
2010-06-26, 00:07:04,VALID,917.276,VALID,0,VALID,93.2572,VALID,0.107441,VALID,20.8324,VALID,353,VALID,0.315234,
2010-06-26, 00:08:04,VALID,917.262,VALID,0,VALID,93.4555,VALID,0.107441,VALID,20.7934,VALID,353,VALID,0.0117188,
2010-06-26, 00:09:04,VALID,917.275,VALID,0,VALID,93.5317,VALID,0,VALID,20.7934,VALID,353,VALID,0.193359,
2010-06-26, 00:10:04,VALID,917.271,VALID,0,VALID,93.5546,VALID,0.107441,VALID,20.8129,VALID,353,VALID,0.4125,
2010-06-26, 00:11:04,VALID,917.26,VALID,0,VALID,93.4097,VALID,0.107441,VALID,20.7739,VALID,353,VALID,0.545703,
2010-06-26, 00:12:04,VALID,917.258,VALID,0,VALID,93.4478,VALID,0,VALID,20.7544,VALID,353,VALID,0.600391,
2010-06-26, 00:13:04,VALID,917.255,VALID,0,VALID,93.5317,VALID,0.107441,VALID,20.7333,VALID,353,VALID,0.43125,
2010-06-26, 00:14:04,VALID,917.248,VALID,0,VALID,93.6765,VALID,0,VALID,20.7349,VALID,353,VALID,0.234375,
2010-06-26, 00:15:04,VALID,917.24,VALID,0,VALID,93.7375,VALID,0.107441,VALID,20.7544,VALID,353,VALID,0.255859,
2010-06-26, 00:16:04,VALID,917.254,VALID,0,VALID,93.6689,VALID,0,VALID,20.7333,VALID,353,VALID,0.446875,
2010-06-26, 00:17:04,VALID,917.233,VALID,0,VALID,93.5774,VALID,0.107441,VALID,20.7544,VALID,353,VALID,0.481641,
2010-06-26, 00:18:04,VALID,917.239,VALID,0,VALID,93.6079,VALID,0,VALID,20.7544,VALID,353,VALID,0.575391,
2010-06-26, 00:19:04,VALID,917.262,VALID,0,VALID,93.6232,VALID,0.107441,VALID,20.7349,VALID,353,VALID,0.603516,
2010-06-26, 00:20:04,VALID,917.219,VALID,0,VALID,93.5927,VALID,0.107441,VALID,20.7544,VALID,353,VALID,0.622266,
2010-06-26, 00:21:04,VALID,917.211,VALID,0,VALID,93.6155,VALID,0.107441,VALID,20.7333,VALID,353,VALID,0.669531,
2010-06-26, 00:22:04,VALID,917.219,VALID,0,VALID,93.6384,VALID,0,VALID,20.7138,VALID,353,VALID,0.812891,
2010-06-26, 00:23:04,VALID,917.205,VALID,0,VALID,93.7223,VALID,0,VALID,20.6764,VALID,353,VALID,0.797266,
2010-06-26, 00:24:04,VALID,917.17,VALID,0,VALID,93.8824,VALID,0,VALID,20.6374,VALID,353,VALID,0.7375,
2010-06-26, 00:25:04,VALID,917.187,VALID,0,VALID,94.012,VALID,0.107441,VALID,20.5984,VALID,353,VALID,0.519531,
2010-06-26, 00:26:04,VALID,917.195,VALID,0,VALID,94.1111,VALID,0,VALID,20.5789,VALID,353,VALID,0.566406,
2010-06-26, 00:27:04,VALID,917.165,VALID,0,VALID,94.2635,VALID,0,VALID,20.5204,VALID,353,VALID,1.18086,
2010-06-26, 00:28:04,VALID,917.169,VALID,0,VALID,94.4617,VALID,0.107441,VALID,20.5009,VALID,353,VALID,1.14766,
2010-06-26, 00:29:04,VALID,917.131,VALID,0,VALID,94.6523,VALID,0,VALID,20.4618,VALID,353,VALID,0.905078,
2010-06-26, 00:30:04,VALID,917.146,VALID,0,VALID,94.82,VALID,0.107441,VALID,20.4228,VALID,353,VALID,1.29688,
2010-06-26, 00:31:04,VALID,917.133,VALID,0,VALID,94.9573,VALID,0,VALID,20.3838,VALID,354,VALID,1.1418,
2010-06-26, 00:32:04,VALID,917.102,VALID,0,VALID,95.1631,VALID,0.107441,VALID,20.3643,VALID,130,VALID,1.21758,
2010-06-26, 00:33:04,VALID,917.093,VALID,0,VALID,95.2927,VALID,0.107441,VALID,20.3238,VALID,130,VALID,1.17891,
2010-06-26, 00:34:04,VALID,917.083,VALID,0,VALID,95.4528,VALID,0,VALID,20.3643,VALID,130,VALID,1.08594,
2010-06-26, 00:35:04,VALID,917.096,VALID,0,VALID,95.59,VALID,0,VALID,20.3448,VALID,130,VALID,0.934375,
2010-06-26, 00:36:04,VALID,917.038,VALID,0,VALID,95.7272,VALID,0,VALID,20.3448,VALID,130,VALID,1.04688,
2010-06-26, 00:37:04,VALID,917.01,VALID,0,VALID,95.8263,VALID,0.107441,VALID,20.3448,VALID,130,VALID,0.45,
2010-06-26, 00:38:04,VALID,916.983,VALID,0,VALID,95.8416,VALID,0.107441,VALID,20.3253,VALID,130,VALID,0.560547,
2010-06-26, 00:39:04,VALID,916.966,VALID,0,VALID,95.8873,VALID,0,VALID,20.3058,VALID,130,VALID,0.382422,
2010-06-26, 00:40:04,VALID,916.968,VALID,0,VALID,95.9331,VALID,0.107441,VALID,20.3058,VALID,130,VALID,0.739062,
2010-06-26, 00:41:04,VALID,916.952,VALID,0,VALID,95.9788,VALID,0,VALID,20.3058,VALID,130,VALID,0.442969,
2010-06-26, 00:42:04,VALID,916.918,VALID,0,VALID,96.0017,VALID,0,VALID,20.3074,VALID,130,VALID,0.323047,
2010-06-26, 00:43:04,VALID,916.929,VALID,0,VALID,96.055,VALID,0,VALID,20.3058,VALID,130,VALID,0.574609,
2010-06-26, 00:44:04,VALID,916.929,VALID,0,VALID,96.0398,VALID,0,VALID,20.2863,VALID,130,VALID,0.564062,
2010-06-26, 00:45:04,VALID,916.896,VALID,0,VALID,96.0322,VALID,0,VALID,20.2668,VALID,130,VALID,0.542578,
2010-06-26, 00:46:04,VALID,916.919,VALID,0,VALID,96.0779,VALID,0,VALID,20.2879,VALID,130,VALID,0.697656,
2010-06-26, 00:47:04,VALID,916.898,VALID,0,VALID,96.1313,VALID,0,VALID,20.2863,VALID,130,VALID,0.302344,
2010-06-26, 00:48:04,VALID,916.893,VALID,0,VALID,96.1236,VALID,0,VALID,20.2863,VALID,130,VALID,0.475781,
2010-06-26, 00:49:04,VALID,916.909,VALID,0,VALID,96.1389,VALID,0,VALID,20.2863,VALID,130,VALID,0.507422,
2010-06-26, 00:50:04,VALID,916.883,VALID,0,VALID,96.1541,VALID,0,VALID,20.2863,VALID,130,VALID,0.530469,
2010-06-26, 00:51:04,VALID,916.916,VALID,0,VALID,96.1236,VALID,0,VALID,20.2863,VALID,130,VALID,0.373047,
2010-06-26, 00:52:04,VALID,916.878,VALID,0,VALID,96.0932,VALID,0,VALID,20.2863,VALID,130,VALID,0.635547,
2010-06-26, 00:53:04,VALID,916.901,VALID,0,VALID,96.0703,VALID,0,VALID,20.2668,VALID,130,VALID,0.539844,
2010-06-26, 00:54:04,VALID,916.893,VALID,0,VALID,96.0017,VALID,0,VALID,20.2684,VALID,130,VALID,0.591406,
2010-06-26, 00:55:04,VALID,916.901,VALID,0,VALID,96.0398,VALID,0,VALID,20.2473,VALID,130,VALID,0.783984,
2010-06-26, 00:56:04,VALID,916.857,VALID,0,VALID,96.0398,VALID,0,VALID,20.2473,VALID,130,VALID,0.88125,
2010-06-26, 00:57:04,VALID,916.875,VALID,0,VALID,96.0474,VALID,0,VALID,20.2473,VALID,130,VALID,0.784766,
2010-06-26, 00:58:04,VALID,916.887,VALID,0,VALID,96.0093,VALID,0.107441,VALID,20.2473,VALID,130,VALID,0.882813,
2010-06-26, 00:59:04,VALID,916.907,VALID,0,VALID,95.9941,VALID,0.107441,VALID,20.2263,VALID,130,VALID,0.919141,
2010-06-26, 01:00:04,VALID,916.878,VALID,0,VALID,95.9331,VALID,0,VALID,20.2473,VALID,130,VALID,0.780078,
2010-06-26, 01:01:04,VALID,916.887,VALID,0,VALID,95.9407,VALID,0,VALID,20.2473,VALID,130,VALID,0.926953,
2010-06-26, 01:02:04,VALID,916.907,VALID,0,VALID,95.895,VALID,0,VALID,20.2473,VALID,130,VALID,0.898438,
2010-06-26, 01:03:04,VALID,916.883,VALID,0,VALID,95.8492,VALID,0,VALID,20.2278,VALID,130,VALID,0.741797,
2010-06-26, 01:04:04,VALID,916.879,VALID,0,VALID,95.8873,VALID,0,VALID,20.2473,VALID,130,VALID,0.766406,
2010-06-26, 01:05:04,VALID,916.869,VALID,0,VALID,95.8645,VALID,0,VALID,20.2473,VALID,130,VALID,0.687109,
2010-06-26, 01:06:04,VALID,916.855,VALID,0,VALID,95.8111,VALID,0,VALID,20.2473,VALID,130,VALID,0.722266,
2010-06-26, 01:07:04,VALID,916.856,VALID,0,VALID,95.8035,VALID,0,VALID,20.2863,VALID,122,VALID,0.887109,
2010-06-26, 01:08:04,VALID,916.836,VALID,0,VALID,95.7425,VALID,0.107441,VALID,20.2863,VALID,122,VALID,0.826563,
2010-06-26, 01:09:04,VALID,916.798,VALID,0,VALID,95.6662,VALID,0,VALID,20.2863,VALID,122,VALID,0.965234,
2010-06-26, 01:10:04,VALID,916.773,VALID,0,VALID,95.6434,VALID,0,VALID,20.2668,VALID,122,VALID,0.666016,
2010-06-26, 01:11:04,VALID,916.757,VALID,0,VALID,95.651,VALID,0,VALID,20.2668,VALID,122,VALID,0.898047,
2010-06-26, 01:12:04,VALID,916.765,VALID,0,VALID,95.6586,VALID,0,VALID,20.2668,VALID,122,VALID,0.957422,
2010-06-26, 01:13:04,VALID,916.712,VALID,0,VALID,95.6205,VALID,0.107441,VALID,20.2473,VALID,122,VALID,0.802734,
2010-06-26, 01:14:04,VALID,916.71,VALID,0,VALID,95.7044,VALID,0,VALID,20.2473,VALID,122,VALID,0.555469,
2010-06-26, 01:15:04,VALID,916.704,VALID,0,VALID,95.7196,VALID,0,VALID,20.2473,VALID,122,VALID,0.313672,
2010-06-26, 01:16:04,VALID,916.671,VALID,0,VALID,95.7654,VALID,0.107441,VALID,20.2668,VALID,122,VALID,0.472266,
2010-06-26, 01:17:04,VALID,916.681,VALID,0,VALID,95.7577,VALID,0,VALID,20.2668,VALID,122,VALID,0.323438,
2010-06-26, 01:18:04,VALID,916.622,VALID,0,VALID,95.7806,VALID,0,VALID,20.2668,VALID,122,VALID,0.599609,
2010-06-26, 01:19:04,VALID,916.638,VALID,0,VALID,95.7654,VALID,0,VALID,20.2863,VALID,122,VALID,0.530078,
2010-06-26, 01:20:04,VALID,916.626,VALID,0,VALID,95.6967,VALID,0.107441,VALID,20.2863,VALID,122,VALID,0.394922,
2010-06-26, 01:21:04,VALID,916.586,VALID,0,VALID,95.6739,VALID,0,VALID,20.3058,VALID,122,VALID,0.257031,
2010-06-26, 01:22:04,VALID,916.582,VALID,0,VALID,95.5519,VALID,0,VALID,20.3253,VALID,122,VALID,0.399219,
2010-06-26, 01:23:04,VALID,916.586,VALID,0,VALID,95.4604,VALID,0,VALID,20.2863,VALID,122,VALID,0.452344,
2010-06-26, 01:24:04,VALID,916.568,VALID,0,VALID,95.4299,VALID,0,VALID,20.2863,VALID,122,VALID,0.56875,
2010-06-26, 01:25:04,VALID,916.582,VALID,0,VALID,95.3842,VALID,0,VALID,20.2863,VALID,122,VALID,0.5375,
2010-06-26, 01:26:04,VALID,916.559,VALID,0,VALID,95.3994,VALID,0.107441,VALID,20.2863,VALID,122,VALID,0.574219,
2010-06-26, 01:27:04,VALID,916.531,VALID,0,VALID,95.3461,VALID,0,VALID,20.2668,VALID,122,VALID,0.432422,
2010-06-26, 01:28:04,VALID,916.535,VALID,0,VALID,95.3689,VALID,0,VALID,20.2668,VALID,122,VALID,0.469922,
2010-06-26, 01:29:04,VALID,916.512,VALID,0,VALID,95.3689,VALID,0,VALID,20.2684,VALID,122,VALID,0.857813,
2010-06-26, 01:30:04,VALID,916.471,VALID,0,VALID,95.3994,VALID,0.107441,VALID,20.2473,VALID,122,VALID,0.453125,
2010-06-26, 01:31:04,VALID,916.47,VALID,0,VALID,95.4375,VALID,0.107441,VALID,20.2263,VALID,122,VALID,0.420703,
2010-06-26, 01:32:04,VALID,916.441,VALID,0,VALID,95.4147,VALID,0.107441,VALID,20.1873,VALID,122,VALID,0.226563,
2010-06-26, 01:33:04,VALID,916.411,VALID,0,VALID,95.4452,VALID,0.107441,VALID,20.1888,VALID,122,VALID,0.477734,
2010-06-26, 01:34:04,VALID,916.387,VALID,0,VALID,95.4833,VALID,0,VALID,20.1888,VALID,122,VALID,0.466406,
2010-06-26, 01:35:04,VALID,916.337,VALID,0,VALID,95.5519,VALID,0.107441,VALID,20.1873,VALID,122,VALID,0.415625,
2010-06-26, 01:36:04,VALID,916.335,VALID,0,VALID,95.6053,VALID,0.107441,VALID,20.1678,VALID,122,VALID,0.512109,
2010-06-26, 01:37:04,VALID,916.315,VALID,0,VALID,95.59,VALID,0,VALID,20.1483,VALID,122,VALID,0.534766,
2010-06-26, 01:38:04,VALID,916.315,VALID,0,VALID,95.6205,VALID,0.107441,VALID,20.1483,VALID,122,VALID,0.333594,
2010-06-26, 01:39:04,VALID,916.315,VALID,0,VALID,95.6891,VALID,0.107441,VALID,20.1693,VALID,122,VALID,0.487891,
2010-06-26, 01:40:04,VALID,916.317,VALID,0,VALID,95.6967,VALID,0.107441,VALID,20.1693,VALID,122,VALID,0.481641,
2010-06-26, 01:41:04,VALID,916.274,VALID,0,VALID,95.651,VALID,0.107441,VALID,20.1288,VALID,122,VALID,0.511719,
2010-06-26, 01:42:04,VALID,916.303,VALID,0,VALID,95.6586,VALID,0.107441,VALID,20.1498,VALID,122,VALID,0.408203,
2010-06-26, 01:43:04,VALID,916.287,VALID,0,VALID,95.6662,VALID,0.107441,VALID,20.0898,VALID,122,VALID,0.490234,
2010-06-26, 01:44:04,VALID,916.296,VALID,0,VALID,95.6662,VALID,0.107441,VALID,20.1108,VALID,122,VALID,0.364062,
2010-06-26, 01:45:04,VALID,916.301,VALID,0,VALID,95.7196,VALID,0,VALID,20.0718,VALID,122,VALID,0.254297,
2010-06-26, 01:46:04,VALID,916.297,VALID,0,VALID,95.7882,VALID,0,VALID,20.0928,VALID,122,VALID,0.428516,
2010-06-26, 01:47:04,VALID,916.284,VALID,0,VALID,95.8263,VALID,0,VALID,20.1108,VALID,122,VALID,0.510547,
2010-06-26, 01:48:04,VALID,916.271,VALID,0,VALID,95.8568,VALID,0,VALID,20.1318,VALID,122,VALID,0.232422,
2010-06-26, 01:49:04,VALID,916.25,VALID,0,VALID,95.7882,VALID,0,VALID,20.1318,VALID,122,VALID,0.263281,
2010-06-26, 01:50:04,VALID,916.258,VALID,0,VALID,95.7501,VALID,0,VALID,20.1108,VALID,122,VALID,0.450781,
2010-06-26, 01:51:04,VALID,916.255,VALID,0,VALID,95.7501,VALID,0,VALID,20.1303,VALID,122,VALID,0.372266,
2010-06-26, 01:52:04,VALID,916.251,VALID,0,VALID,95.7806,VALID,0.107441,VALID,20.1498,VALID,122,VALID,0.4125,
2010-06-26, 01:53:04,VALID,916.204,VALID,0,VALID,95.7806,VALID,0,VALID,20.1483,VALID,122,VALID,0.561719,
2010-06-26, 01:54:04,VALID,916.259,VALID,0,VALID,95.8416,VALID,0.107441,VALID,20.2083,VALID,122,VALID,0.289844,
2010-06-26, 01:55:04,VALID,916.231,VALID,0,VALID,95.8416,VALID,0,VALID,20.2083,VALID,122,VALID,0.498437,
2010-06-26, 01:56:04,VALID,916.212,VALID,0,VALID,95.7882,VALID,0.107441,VALID,20.2263,VALID,122,VALID,0.438281,
2010-06-26, 01:57:04,VALID,916.234,VALID,0,VALID,95.7272,VALID,0.107441,VALID,20.2473,VALID,122,VALID,0.53125,
2010-06-26, 01:58:04,VALID,916.196,VALID,0,VALID,95.6281,VALID,0.107441,VALID,20.2473,VALID,122,VALID,0.6625,
2010-06-26, 01:59:04,VALID,916.163,VALID,0,VALID,95.4985,VALID,0.107441,VALID,20.2278,VALID,122,VALID,0.511328,
2010-06-26, 02:00:04,VALID,916.162,VALID,0,VALID,95.3384,VALID,0,VALID,20.1903,VALID,122,VALID,0.576172,
2010-06-26, 02:01:04,VALID,916.138,VALID,0,VALID,95.2775,VALID,0,VALID,20.1513,VALID,122,VALID,0.592578,
2010-06-26, 02:02:04,VALID,916.126,VALID,0,VALID,95.3232,VALID,0,VALID,20.1513,VALID,122,VALID,0.454688,
2010-06-26, 02:03:04,VALID,916.101,VALID,0,VALID,95.3918,VALID,0,VALID,20.1123,VALID,122,VALID,0.449219,
2010-06-26, 02:04:04,VALID,916.041,VALID,0,VALID,95.4375,VALID,0,VALID,20.0718,VALID,122,VALID,0.382813,
2010-06-26, 02:05:04,VALID,916.026,VALID,0,VALID,95.529,VALID,0,VALID,20.0538,VALID,122,VALID,0.444922,
2010-06-26, 02:06:04,VALID,916.024,VALID,0,VALID,95.6434,VALID,0,VALID,20.0733,VALID,122,VALID,0.425781,
2010-06-26, 02:07:04,VALID,915.981,VALID,0,VALID,95.6967,VALID,0,VALID,20.0343,VALID,122,VALID,0.491797,
2010-06-26, 02:08:04,VALID,915.977,VALID,0,VALID,95.7806,VALID,0,VALID,20.0538,VALID,122,VALID,0.478906,
2010-06-26, 02:09:04,VALID,915.98,VALID,0,VALID,95.834,VALID,0,VALID,20.0538,VALID,122,VALID,0.687891,
2010-06-26, 02:10:04,VALID,915.961,VALID,0,VALID,95.8492,VALID,0,VALID,20.0343,VALID,122,VALID,0.715234,
2010-06-26, 02:11:04,VALID,915.994,VALID,0,VALID,95.895,VALID,0,VALID,20.0148,VALID,122,VALID,0.880469,
2010-06-26, 02:12:04,VALID,915.951,VALID,0,VALID,95.9559,VALID,0,VALID,19.9938,VALID,122,VALID,0.827734,
2010-06-26, 02:13:04,VALID,915.962,VALID,0,VALID,96.0093,VALID,0,VALID,20.0148,VALID,118,VALID,0.753906,
2010-06-26, 02:14:04,VALID,915.956,VALID,0,VALID,96.0245,VALID,0,VALID,20.0148,VALID,117,VALID,0.780859,
2010-06-26, 02:15:04,VALID,915.935,VALID,0,VALID,96.0703,VALID,0,VALID,20.0148,VALID,118,VALID,0.854297,
2010-06-26, 02:16:04,VALID,915.938,VALID,0,VALID,96.0932,VALID,0,VALID,20.0148,VALID,118,VALID,0.6375,
2010-06-26, 02:17:04,VALID,915.887,VALID,0,VALID,96.0932,VALID,0,VALID,19.9758,VALID,117,VALID,0.411328,
2010-06-26, 02:18:04,VALID,915.877,VALID,0,VALID,96.1465,VALID,0,VALID,19.9953,VALID,109,VALID,1.00508,
2010-06-26, 02:19:04,VALID,915.883,VALID,0,VALID,96.1999,VALID,0,VALID,19.9953,VALID,98,VALID,0.819141,
2010-06-26, 02:20:04,VALID,915.827,VALID,0,VALID,96.1923,VALID,0,VALID,19.9758,VALID,98,VALID,0.621094,
2010-06-26, 02:21:04,VALID,915.846,VALID,0,VALID,96.2914,VALID,0,VALID,19.9953,VALID,98,VALID,0.678906,
2010-06-26, 02:22:04,VALID,915.81,VALID,0,VALID,96.299,VALID,0,VALID,20.0148,VALID,98,VALID,0.633984,
2010-06-26, 02:23:04,VALID,915.788,VALID,0,VALID,96.36,VALID,0,VALID,20.0148,VALID,98,VALID,0.555078,
2010-06-26, 02:24:04,VALID,915.782,VALID,0,VALID,96.421,VALID,0,VALID,20.0343,VALID,98,VALID,1.08164,
2010-06-26, 02:25:04,VALID,915.787,VALID,0,VALID,96.4438,VALID,0,VALID,20.0538,VALID,98,VALID,0.664844,
2010-06-26, 02:26:04,VALID,915.755,VALID,0,VALID,96.4515,VALID,0,VALID,20.0343,VALID,103,VALID,0.776563,
2010-06-26, 02:27:04,VALID,915.758,VALID,0,VALID,96.4286,VALID,0,VALID,20.0538,VALID,113,VALID,0.85,
2010-06-26, 02:28:04,VALID,915.761,VALID,0,VALID,96.3981,VALID,0,VALID,20.0538,VALID,113,VALID,0.764063,
2010-06-26, 02:29:04,VALID,915.754,VALID,0,VALID,96.3829,VALID,0,VALID,20.0343,VALID,113,VALID,0.573047,
2010-06-26, 02:30:04,VALID,915.732,VALID,0,VALID,96.421,VALID,0,VALID,20.0523,VALID,113,VALID,0.657031,
2010-06-26, 02:31:04,VALID,915.739,VALID,0,VALID,96.3905,VALID,0,VALID,20.0718,VALID,114,VALID,0.927734,
2010-06-26, 02:32:04,VALID,915.743,VALID,0,VALID,96.3524,VALID,0,VALID,20.0913,VALID,114,VALID,0.673828,
2010-06-26, 02:33:04,VALID,915.722,VALID,0,VALID,96.299,VALID,0,VALID,20.0913,VALID,114,VALID,0.548828,
2010-06-26, 02:34:04,VALID,915.733,VALID,0,VALID,96.238,VALID,0,VALID,20.0913,VALID,170,VALID,0.765625,
2010-06-26, 02:35:04,VALID,915.711,VALID,0,VALID,96.1541,VALID,0,VALID,20.1108,VALID,170,VALID,0.823438,
2010-06-26, 02:36:04,VALID,915.691,VALID,0,VALID,96.0322,VALID,0,VALID,20.0913,VALID,170,VALID,0.649219,
2010-06-26, 02:37:04,VALID,915.674,VALID,0,VALID,95.9254,VALID,0,VALID,20.0913,VALID,149,VALID,1.02188,
2010-06-26, 02:38:04,VALID,915.633,VALID,0,VALID,95.834,VALID,0.107441,VALID,20.0913,VALID,140,VALID,0.875391,
2010-06-26, 02:39:04,VALID,915.659,VALID,0,VALID,95.773,VALID,0.107441,VALID,20.1108,VALID,140,VALID,0.794141,
2010-06-26, 02:40:04,VALID,915.633,VALID,0,VALID,95.7577,VALID,0.107441,VALID,20.0718,VALID,140,VALID,0.883203,
2010-06-26, 02:41:04,VALID,915.631,VALID,0,VALID,95.773,VALID,0,VALID,20.0913,VALID,140,VALID,0.724219,
2010-06-26, 02:42:04,VALID,915.619,VALID,0,VALID,95.7577,VALID,0,VALID,20.0913,VALID,139,VALID,0.528516,
2010-06-26, 02:43:04,VALID,915.607,VALID,0,VALID,95.7806,VALID,0,VALID,20.0913,VALID,139,VALID,0.576953,
2010-06-26, 02:44:04,VALID,915.624,VALID,0,VALID,95.7501,VALID,0,VALID,20.0913,VALID,139,VALID,0.375,
2010-06-26, 02:45:04,VALID,915.664,VALID,0,VALID,95.6586,VALID,0,VALID,20.0733,VALID,139,VALID,0.615625,
2010-06-26, 02:46:04,VALID,915.622,VALID,0,VALID,95.6129,VALID,0,VALID,20.0538,VALID,139,VALID,0.684375,
2010-06-26, 02:47:04,VALID,915.616,VALID,0,VALID,95.6129,VALID,0,VALID,20.0343,VALID,139,VALID,0.730078,
2010-06-26, 02:48:04,VALID,915.633,VALID,0,VALID,95.6739,VALID,0,VALID,20.0148,VALID,139,VALID,0.714844,
2010-06-26, 02:49:04,VALID,915.641,VALID,0,VALID,95.7501,VALID,0,VALID,20.0148,VALID,139,VALID,0.783203,
2010-06-26, 02:50:04,VALID,915.631,VALID,0,VALID,95.8187,VALID,0,VALID,20.0163,VALID,120,VALID,0.865234,
2010-06-26, 02:51:04,VALID,915.639,VALID,0,VALID,95.8111,VALID,0,VALID,19.9953,VALID,119,VALID,1.36875,
2010-06-26, 02:52:04,VALID,915.622,VALID,0,VALID,95.834,VALID,0,VALID,20.0148,VALID,96,VALID,0.941797,
2010-06-26, 02:53:04,VALID,915.642,VALID,0,VALID,95.7958,VALID,0,VALID,19.9953,VALID,96,VALID,0.589063,
2010-06-26, 02:54:04,VALID,915.592,VALID,0,VALID,95.7501,VALID,0,VALID,19.9758,VALID,96,VALID,0.688281,
2010-06-26, 02:55:04,VALID,915.604,VALID,0,VALID,95.773,VALID,0,VALID,19.9953,VALID,96,VALID,0.596484,
2010-06-26, 02:56:04,VALID,915.575,VALID,0,VALID,95.7882,VALID,0,VALID,19.9743,VALID,96,VALID,0.775391,
2010-06-26, 02:57:04,VALID,915.596,VALID,0,VALID,95.8111,VALID,0,VALID,19.9743,VALID,138,VALID,0.644531,
2010-06-26, 02:58:04,VALID,915.541,VALID,0,VALID,95.8492,VALID,0,VALID,19.9953,VALID,138,VALID,0.633203,
2010-06-26, 02:59:04,VALID,915.517,VALID,0,VALID,95.9026,VALID,0,VALID,19.9953,VALID,138,VALID,0.733984,
2010-06-26, 03:00:04,VALID,915.487,VALID,0,VALID,95.9254,VALID,0,VALID,19.9938,VALID,138,VALID,0.763672,
2010-06-26, 03:01:04,VALID,915.461,VALID,0,VALID,95.8873,VALID,0,VALID,19.9743,VALID,138,VALID,0.486719,
2010-06-26, 03:02:04,VALID,915.469,VALID,0,VALID,95.9941,VALID,0.107441,VALID,19.9938,VALID,138,VALID,1.10078,
2010-06-26, 03:03:04,VALID,915.441,VALID,0,VALID,96.0093,VALID,0.107441,VALID,20.0133,VALID,138,VALID,0.842969,
2010-06-26, 03:04:04,VALID,915.422,VALID,0,VALID,96.0322,VALID,0,VALID,20.0133,VALID,138,VALID,0.880469,
2010-06-26, 03:05:04,VALID,915.41,VALID,0,VALID,96.0169,VALID,0,VALID,20.0133,VALID,138,VALID,0.794531,
2010-06-26, 03:06:04,VALID,915.395,VALID,0,VALID,96.0169,VALID,0,VALID,20.0538,VALID,138,VALID,0.845312,
2010-06-26, 03:07:04,VALID,915.37,VALID,0,VALID,95.9407,VALID,0,VALID,20.0328,VALID,138,VALID,0.676172,
2010-06-26, 03:08:04,VALID,915.395,VALID,0,VALID,95.8721,VALID,0.107441,VALID,20.0523,VALID,138,VALID,0.697266,
2010-06-26, 03:09:04,VALID,915.4,VALID,0,VALID,95.834,VALID,0,VALID,20.0733,VALID,138,VALID,1.10781,
2010-06-26, 03:10:04,VALID,915.387,VALID,0,VALID,95.7806,VALID,0,VALID,20.0733,VALID,138,VALID,1.07344,
2010-06-26, 03:11:04,VALID,915.373,VALID,0,VALID,95.6891,VALID,0,VALID,20.0718,VALID,138,VALID,0.740234,
2010-06-26, 03:12:04,VALID,915.382,VALID,0,VALID,95.6205,VALID,0,VALID,20.0718,VALID,138,VALID,0.777344,
2010-06-26, 03:13:04,VALID,915.385,VALID,0,VALID,95.4757,VALID,0,VALID,20.0718,VALID,137,VALID,1.1332,
2010-06-26, 03:14:04,VALID,915.376,VALID,0,VALID,95.3689,VALID,0.107441,VALID,20.0718,VALID,137,VALID,0.753125,
2010-06-26, 03:15:04,VALID,915.372,VALID,0,VALID,95.3003,VALID,0,VALID,20.0538,VALID,137,VALID,1.04648,
2010-06-26, 03:16:04,VALID,915.358,VALID,0,VALID,95.2241,VALID,0,VALID,20.0343,VALID,137,VALID,0.962891,
2010-06-26, 03:17:04,VALID,915.378,VALID,0,VALID,95.2165,VALID,0,VALID,19.9953,VALID,137,VALID,0.925391,
2010-06-26, 03:18:04,VALID,915.369,VALID,0,VALID,95.3156,VALID,0,VALID,19.9758,VALID,131,VALID,0.973047,
2010-06-26, 03:19:04,VALID,915.385,VALID,0,VALID,95.4604,VALID,0,VALID,19.9563,VALID,120,VALID,0.913672,
2010-06-26, 03:20:04,VALID,915.396,VALID,0,VALID,95.5367,VALID,0,VALID,19.9368,VALID,119,VALID,1.06719,
2010-06-26, 03:21:04,VALID,915.373,VALID,0,VALID,95.5976,VALID,0,VALID,19.9173,VALID,119,VALID,1.10703,
2010-06-26, 03:22:04,VALID,915.357,VALID,0,VALID,95.6662,VALID,0,VALID,19.8978,VALID,119,VALID,1.00625,
2010-06-26, 03:23:04,VALID,915.337,VALID,0,VALID,95.773,VALID,0,VALID,19.8783,VALID,118,VALID,1.13945,
2010-06-26, 03:24:04,VALID,915.331,VALID,0,VALID,95.8492,VALID,0,VALID,19.8978,VALID,118,VALID,0.95,
2010-06-26, 03:25:04,VALID,915.35,VALID,0,VALID,95.9178,VALID,0,VALID,19.8978,VALID,118,VALID,1.03789,
2010-06-26, 03:26:04,VALID,915.35,VALID,0,VALID,95.9864,VALID,0,VALID,19.8978,VALID,118,VALID,0.994531,
2010-06-26, 03:27:04,VALID,915.331,VALID,0,VALID,96.0093,VALID,0,VALID,19.8978,VALID,118,VALID,1.04531,
2010-06-26, 03:28:04,VALID,915.302,VALID,0,VALID,96.0322,VALID,0,VALID,19.9188,VALID,118,VALID,1.07578,
2010-06-26, 03:29:04,VALID,915.293,VALID,0,VALID,96.055,VALID,0,VALID,19.8978,VALID,118,VALID,1.26289,
2010-06-26, 03:30:04,VALID,915.291,VALID,0,VALID,96.0093,VALID,0,VALID,19.8963,VALID,118,VALID,0.850391,
2010-06-26, 03:31:04,VALID,915.285,VALID,0,VALID,95.9712,VALID,0.107441,VALID,19.8963,VALID,118,VALID,1.15117,
2010-06-26, 03:32:04,VALID,915.282,VALID,0,VALID,95.9788,VALID,0,VALID,19.9158,VALID,118,VALID,0.989062,
2010-06-26, 03:33:04,VALID,915.246,VALID,0,VALID,95.9102,VALID,0,VALID,19.9173,VALID,118,VALID,0.916406,
2010-06-26, 03:34:04,VALID,915.237,VALID,0,VALID,95.8416,VALID,0,VALID,19.8963,VALID,118,VALID,0.963672,
2010-06-26, 03:35:04,VALID,915.236,VALID,0,VALID,95.773,VALID,0,VALID,19.9158,VALID,118,VALID,0.678906,
2010-06-26, 03:36:04,VALID,915.231,VALID,0,VALID,95.712,VALID,0,VALID,19.9173,VALID,118,VALID,0.869922,
2010-06-26, 03:37:04,VALID,915.237,VALID,0,VALID,95.6662,VALID,0,VALID,19.9368,VALID,118,VALID,1.04375,
2010-06-26, 03:38:04,VALID,915.238,VALID,0,VALID,95.6357,VALID,0,VALID,19.9563,VALID,118,VALID,0.914844,
2010-06-26, 03:39:04,VALID,915.206,VALID,0,VALID,95.5671,VALID,0,VALID,19.9158,VALID,134,VALID,0.90625,
2010-06-26, 03:40:04,VALID,915.177,VALID,0,VALID,95.5062,VALID,0,VALID,19.8963,VALID,135,VALID,0.788281,
2010-06-26, 03:41:04,VALID,915.174,VALID,0,VALID,95.4985,VALID,0,VALID,19.9368,VALID,135,VALID,1.08555,